Regional Weather Roundup
Issued by NWS

Home | Current Version | Previous Version | Text Only | Print | Product List | Glossary On
Versions: 1 2 3 4 5 6 7 8 9 10 11 12 13 14 15 16 17 18 19 20 21 22 23 24 25 26 27 28 29 30 31 32 33 34 35 36 37 38 39 40 41 42 43 44 45 46 47 48 49 50
000
ASHW40 PHFO 300543
RWRHI

WEATHER ROUNDUP FOR HAWAII
NATIONAL WEATHER SERVICE HONOLULU HI
700 PM HST SAT AUG 29 2015

THIS IS AN AUTOMATED REPORT THAT HAS NOT BEEN QUALITY CONTROLLED.

NOTE..."FAIR" INDICATES FEW OR NO CLOUDS BELOW 12,000 FEET WITH NO
SIGNIFICANT WEATHER AND/OR OBSTRUCTIONS TO VISIBILITY.

* - THESE SITES REPORT LIMITED FIELDS

HIZ001>004-300600-
KAUAI-NIIHAU-

CITY           SKY/WX    TMP DP  RH WIND       PRES   REMARKS
LIHUE APT      PTCLDY    82  76  81 NE13      29.90R
PORT ALLEN*    NOT AVBL
POIPU*           N/A     82 N/A N/A NE7G13      N/A
PRINCEVILLE*     N/A     81 N/A N/A MISG        N/A
KOKOLE POINT*  NOT AVBL
MOLOAA DAIRY*    N/A     81  75  83 E3G10       N/A
WAIMEA HTS*      N/A     79  73  83 CALM        N/A
PUU OPAE*        N/A     72  70  94 CALM        N/A
PUU LUA*       NOT AVBL
MAKAHA RIDGE*    N/A     73  72  94 CALM        N/A
$$

HIZ005>011-300600-
OAHU-

CITY           SKY/WX    TMP DP  RH WIND       PRES   REMARKS
HONOLULU       PTCLDY    84  71  65 NE13      29.87R
KALAELOA       CLEAR     83  70  64 VRB6      29.88R
KANEOHE MCB    PTCLDY    81  73  76 E7        29.86R
WHEELER FIELD  MOCLDY    80  72  76 NE3       29.89R
BELLOWS*         N/A    N/A N/A N/A NE14        N/A
KAHUKU*          N/A    N/A N/A N/A NE8G15      N/A
WHEELER*       NOT AVBL
WAIANAE HARBOR NOT AVBL
DILLINGHAM*      N/A     86  73  66 MISG        N/A  HX  93
KAHUKU TRN*      N/A     81  72  74 E6G14       N/A
KAWAILOA*        N/A     75  70  83 E6G18       N/A
KII*             N/A     82  75  78 E12G17      N/A
MAKUA RANGE*     N/A     82  70  65 E6G12       N/A
OAHU FOREST NW   N/A     70  70 100 CALM        N/A
SCHOFIELD BRK*   N/A     81  72  74 MISG        N/A
SCHOFIELD S*   NOT AVBL
WAIANAE VLY*     N/A     86  75  70 MISG        N/A  HX  95
KUAOKALA*        N/A     79  70  73 NE10G23     N/A
HONOULIUULI*   NOT AVBL
MOKUOLOE IS*     N/A    N/A N/A N/A MISG        N/A
PALEHUA*         N/A     72  66  83 NE6G14      N/A
WAIAWA PHB*    NOT AVBL
$$

HIZ012>013-300600-
MOLOKAI-

CITY           SKY/WX    TMP DP  RH WIND       PRES   REMARKS
MOLOKAI AIRPT  CLEAR     79  72  79 NE9G16    29.89R
KALAUPAPA      NOT AVBL
MAKAPULAPAI*     N/A     81  73  78 E16G22      N/A
MOLOKAI 1*       N/A     81  72  74 E3G15       N/A
PUU ALII*        N/A     65  63  94 E2G8        N/A
$$

HIZ016-300600-
KAHOOLAWE-

CITY           SKY/WX    TMP DP  RH WIND       PRES   REMARKS
KAHOOLAWE*       N/A     75 N/A N/A E10G20      N/A
HAKIOAWA*        N/A     78  72  81 MISG      30.32
HONOKANAIA*      N/A     84  71  65 NE15G25   29.79R
KANELOA*         N/A     81  73  78 E14G25    29.92R
KEALIALALO*      N/A     79  70  73 E12G23    29.88R
LUA MAKIKA*    NOT AVBL
$$

HIZ014>015-300600-
LANAI-

CITY           SKY/WX    TMP DP  RH WIND       PRES   REMARKS
LANAI CITY     FAIR      75  70  84 E9        29.93R
LANAI 1*         N/A     75  72  88 NE16G24     N/A
$$

HIZ017>028-300600-
MAUI-

CITY           SKY/WX    TMP DP  RH WIND       PRES   REMARKS
KAHULUI        PTCLDY    82  72  71 NE12      29.87R
KAPALUA-W MAUI NOT AVBL
HANA AIRPORT   MOCLDY    77  73  88 CALM      29.92S
HANA*            N/A     82 N/A N/A E6          N/A
HALEAKALA SUMM   N/A     50  39  66 N10         N/A
MAALAEA BAY*   NOT AVBL
HALEAKALA*     NOT AVBL
KAUPO GAP*       N/A     66  66 100 CALM        N/A
KULA 1*          N/A     60  59  97 NW1         N/A
$$

HIZ023>026-300600-
BIG ISLAND OF HAWAII COAST AND LOWER SLOPES-

CITY           SKY/WX    TMP DP  RH WIND       PRES   REMARKS
KAILUA KONA    MOCLDY    84  76  76 W6        29.83R HX  93
HILO           CLEAR     81  73  76 N7        29.88R
HONOKAA*       NOT AVBL
KAWAIHAE MWT*    N/A     86 N/A N/A SW6         N/A
KAWAIHAE*        N/A     84 N/A N/A W6          N/A
SOUTH POINT*     N/A     75 N/A N/A E2          N/A
UPOLU AIRPORT*   N/A    N/A N/A N/A E12G17      N/A
KAMUELA*       NOT AVBL
HAKALAU*         N/A     57  55  91 W3          N/A
KALOKO-HONOKO*   N/A     81  75  83 SW5       29.83R
PALI 2*          N/A     70  63  78 NE14G21     N/A
KEALAKOMO*     NOT AVBL
KAUPULEHU*       N/A     77  73  88 NW2         N/A
KAPAPALA*        N/A     73  72  96 N2          N/A
LOWER KAHUKU*    N/A     70 N/A N/A N1          N/A
PUHE CS*         N/A     84  68  58 SW2         N/A
PUHO CS*         N/A     83  73  72 NW3         N/A
PTA KEAMUKU*     N/A     68  61  77 CALM        N/A
WAIKOLOA*        N/A     77  68  73 NE12G18     N/A
$$

HIZ027>028-300600-
BIG ISLAND OF HAWAII INTERIOR AND SUMMMITS-

CITY           SKY/WX    TMP DP  RH WIND       PRES   REMARKS
BRADSHAW FIELD CLEAR     62  60  95 W2        30.24R
MK VISITOR CEN   N/A     50  45  81 VRB2        N/A
MAUNA KEA*       N/A     39  27  60 N16         N/A
MAUNA LOA*       N/A     48  39  71 MISG        N/A
MAUNA LOA 1*   NOT AVBL
PTA KIPUKA*      N/A     64  61  88 W2G9        N/A
PTA RANGE 17*    N/A     63  59  88 SW3G10      N/A
PTA WEST*        N/A     68  63  83 NW3         N/A
NENE CABIN*      N/A     59  55  88 E3          N/A
AHUMOA*          N/A     59  56  90 E5          N/A
PTA PORTABLE*  NOT AVBL
PUU MALI*        N/A     64  43  45 E13G20      N/A
$$

HIC003-300600-
NORTHWEST ISLANDS-

CITY           SKY/WX    TMP DP  RH WIND       PRES   REMARKS
MIDWAY ISLAND  SUNNY     84  75  74 SE6       29.87S HX  92
MIDWAY NOS*    NOT AVBL
FRENCH FRIGATE NOT AVBL
$$

PHZ110>124-180-300600-
BUOY REPORTS

STATION/POSITION TIME  TEMP    WIND        PRES    WAVE   SWELL
                       AIR SEA DIR/SP/G            HT/PER HT/DIR
                 (UTC) (F)     (DEG/KT/KT) (MB)    (FT/S) (FT/D)
BUOY 51001       0450   82 83   90/ 12/ 16 1012.6
BUOY 51101       0500   82 83  100/ 12/ 14 1011.9R   7/ 9   7/ 30
BUOY 51100       NOT AVBL
BUOY 51002       0500   82 83   80/ 12/ 14 1009.8R   5/15   5/290
BUOY 51003       0500   83 85   60/ 10/ 12 1010.3R   5/14   5/240
BUOY 51004       0403   82 83   30/ 14/ 16 1008.6R   7/11   7/100
BARBERS PT BUOY  NOT AVBL
WAIMEA BAY BUOY  0500      82                N/A     6/ 9   3/300
KAILUA BAY BUOY  0500      84                N/A     6/ 9   2/360
LANAI BUOY       NOT AVBL
BARBERS PT 2     0500      83                N/A     4/14   3/240
PAUWELA MAUI     0500      82                N/A     6/ 9   3/320
HILO             NOT AVBL
KANEOHE BAY BUOY 0500      82                N/A     6/ 9   2/ 10
HANALEI KAUAI    0500      83                N/A     6/14   3/300
KAHULUI HARBOR   NOT AVBL
HONOLULU HARBOR  NOT AVBL
KILO NALU        NOT AVBL
HILO HARBOR      NOT AVBL
MOKUOLOE         NOT AVBL
NAWILIWILI       NOT AVBL
WHOTS BUOY       NOT AVBL
BUOY 51028       NOT AVBL
$$

......................KEY........................................
  SKY/WX - SKY CONDITIONS/PRESENT WEATHER
  TMP    - TEMPERATURE IN FAHRENHEIT
  DWPT   - DEWPOINT IN FAHRENHEIT
  RH     - RELATIVE HUMIDITY IN PERCENT
  WIND   - DIRECTION AND SPEED /MPH FOR ISLANDS...KTS FOR BUOYS/
  PRES   - MEAN SEA LEVEL PRESSURE IN INCHES OF HG
  VSB    - VISIBILITY IN MILES
  HX     - HEAT INDEX
  WCI    - WIND CHILL INDEX
  VRB    - VARIABLE WIND DIRECTION
  N/A    - NOT AVAILABLE


USA.gov is the U.S. government's official web portal to all federal, state and local government web resources and services.